Location: Arroyo de Valdeoliva
(40.1604°N, 4.9878°W)
Time: 21:04:22
(UTC+00:00)

SPOT 1/Viking Rocket - Pass Details

Date: 08 March 2026
Orbit: 773 x 788 km, 98.2° (Epoch: 11 April)

Event Time Altitude Azimuth Distance (km) Brightness Sun altitude
Rises 05:55:39 0° 32° (NNE) 3,289 7.3 -9.8°
Reaches altitude 10° 05:59:00 10° 55° (NE) 2,356 7.0 -9.2°
Maximum altitude 06:02:00 15° 91° (E) 1,999 7.1 -8.6°
Drops below altitude 10° 06:04:59 10° 126° (SE) 2,345 6.9 -8.1°
Sets 06:08:18 0° 149° (SSE) 3,267 7.2 -7.4°
